Russell, KS

10:03 PM CDT on March 27, 2017 (GMT -0500)
Russell Municipal

Weather History for KRSL - March, 2013

Change the Weather History Date:

Wednesday, March 20, 2013

  Actual Average Record
Temperature  
Mean Temperature 32 °F -  
Max Temperature 46 °F 58 °F 85 °F (1953)
Min Temperature 19 °F 30 °F 10 °F (1958)
Degree Days  
Heating Degree Days 32    
Moisture  
Dew Point 19 °F    
Average Humidity 58    
Maximum Humidity 88    
Minimum Humidity 31    
Precipitation  
Precipitation 0.00 in - - ()
Sea Level Pressure  
Sea Level Pressure 30.28 in    
Wind  
Wind Speed 7 mph (East)    
Max Wind Speed 15 mph    
Max Gust Speed 16 mph    
Visibility 10 miles    
Events      
Averages and records for this station are not official NWS values.
T = Trace of Precipitation, MM = Missing Value Source: NWS Daily Summary

Daily Weather History Graph

Daily Weather History Graph

Search for Another Location

Airport or City:

Trip Planner

Search our weather history database for the weather conditions in past years. The results will help you decide how hot, cold, wet, or windy it might be!

Date:

Astronomy

Mar. 20, 2013 Rise Set
Actual Time 7:38 AM CDT 7:47 PM CDT
Civil Twilight 7:11 AM CDT 8:14 PM CDT
Nautical Twilight 6:40 AM CDT 8:45 PM CDT
Astronomical Twilight 6:09 AM CDT 9:16 PM CDT
Moon 1:27 PM CDT (3/20) 3:16 AM CDT (3/20)
Length of Visible Light 13h 02m
Length of Day
12h 09m
First Quarter, 59% of the Moon is Illuminated
Mar 20
First Quarter
Mar 27
Full
Apr 2
Last Quarter
Apr 10
New
Apr 18
First Quarter

Hourly Weather History & Observations

Time (CDT) Temp. Windchill Dew Point Humidity Pressure Visibility Wind Dir Wind Speed Gust Speed Precip Events Conditions
12:53 AM 35.1 °F - 27.0 °F 72% 30.33 in 10.0 mi Calm Calm - N/A   Clear
1:53 AM 30.0 °F 22.4 °F 26.1 °F 85% 30.35 in 10.0 mi NNW 8.1 mph - N/A   Clear
2:53 AM 28.0 °F 18.6 °F 24.1 °F 85% 30.38 in 10.0 mi North 10.4 mph - N/A   Partly Cloudy
3:53 AM 28.0 °F 20.0 °F 21.9 °F 78% 30.39 in 10.0 mi North 8.1 mph - N/A   Clear
4:53 AM 26.1 °F 15.6 °F 19.9 °F 78% 30.40 in 10.0 mi North 11.5 mph - N/A   Clear
5:53 AM 23.0 °F 13.9 °F 18.0 °F 81% 30.41 in 10.0 mi NNE 8.1 mph - N/A   Clear
6:53 AM 21.0 °F 12.4 °F 18.0 °F 88% 30.43 in 10.0 mi NNE 6.9 mph - N/A   Clear
7:53 AM 19.0 °F - 15.1 °F 85% 30.45 in 10.0 mi Calm Calm - N/A   Clear
8:53 AM 26.1 °F - 21.0 °F 81% 30.45 in 10.0 mi North - - N/A   Clear
9:53 AM 28.9 °F 25.2 °F 23.0 °F 78% 30.44 in 10.0 mi Variable 3.5 mph - N/A   Clear
10:53 AM 33.1 °F 27.7 °F 15.1 °F 48% 30.43 in 10.0 mi ENE 5.8 mph - N/A   Clear
11:53 AM 36.0 °F 31.1 °F 15.1 °F 43% 30.42 in 10.0 mi Variable 5.8 mph - N/A   Clear
12:53 PM 37.9 °F 34.4 °F 16.0 °F 41% 30.37 in 10.0 mi Variable 4.6 mph - N/A   Clear
1:53 PM 39.9 °F 36.7 °F 16.0 °F 38% 30.33 in 10.0 mi Variable 4.6 mph - N/A   Clear
2:53 PM 43.0 °F 38.8 °F 15.1 °F 32% 30.27 in 10.0 mi Variable 6.9 mph - N/A   Clear
3:53 PM 45.0 °F 39.3 °F 16.0 °F 31% 30.20 in 10.0 mi South 11.5 mph - N/A   Clear
4:53 PM 46.0 °F 41.0 °F 18.0 °F 33% 30.17 in 10.0 mi SSE 10.4 mph 16.1 mph N/A   Clear
5:53 PM 46.0 °F 40.2 °F 19.0 °F 34% 30.15 in 10.0 mi South 12.7 mph - N/A   Clear
6:53 PM 45.0 °F 39.3 °F 19.0 °F 36% 30.12 in 10.0 mi SE 11.5 mph - N/A   Clear
7:53 PM 41.0 °F 34.3 °F 19.0 °F 41% 30.09 in 10.0 mi ESE 11.5 mph - N/A   Clear
8:53 PM 39.0 °F 31.4 °F 19.0 °F 45% 30.06 in 10.0 mi ESE 12.7 mph - N/A   Clear
9:53 PM 37.9 °F 29.2 °F 19.0 °F 47% 30.04 in 10.0 mi ESE 15.0 mph - N/A   Clear
10:53 PM 37.9 °F 29.2 °F 19.9 °F 48% 30.01 in 10.0 mi SE 15.0 mph - N/A   Clear
11:53 PM 36.0 °F 26.7 °F 19.9 °F 52% 29.99 in 10.0 mi ESE 15.0 mph - N/A   Partly Cloudy